Wind_Speed
63 64 66 67 67 68 68 69 70 71 73 74 76 77 79 80 82 83 85 86 88 89 90 92 93 95 96 98 100 101 103 105 107 110 112 114 116 118 119 119 120 121 121 122 123 123 122 122 121 120 118 116 115 115 114 112 109 107 105 102 98 95 94 93 93 94 94 92 89 84 81 81 80 80 76 73 72 70 68 67 67 66 64 61 60 59 58 57
62 63 64 65 66 67 67 69 70 71 73 74 75 77 78 80 81 83 84 86 87 88 89 90 92 93 95 97 99 100 102 104 107 109 110 112 114 116 118 119 120 120 121 121 122 123 123 123 122 122 120 118 117 117 116 114 112 109 106 103 98 96 95 96 96 96 96 95 91 86 83 82 82 82 79 75 74 73 71 69 68 68 66 64 63 62 60 59
60 62 63 64 66 67 68 69 70 71 72 73 74 76 77 79 80 82 83 85 86 87 88 89 90 92 93 95 97 99 101 104 106 108 109 110 111 113 116 117 118 119 120 121 122 123 123 123 123 123 122 120 119 118 117 115 113 110 107 103 100 99 99 99 99 98 99 97 92 88 85 84 84 84 81 77 76 75 74 72 70 70 69 67 66 65 63 61
61 62 64 65 66 67 68 69 70 70 71 72 73 75 76 77 79 80 82 83 84 85 86 87 88 90 92 94 96 98 101 104 106 107 108 109 109 111 113 115 117 117 119 120 121 122 123 123 123 123 123 122 121 120 119 116 114 112 108 104 102 103 102 101 101 99 99 97 93 91 88 86 86 86 84 81 79 77 76 74 73 73 73 71 68 66 64 63
60 62 63 64 65 67 68 69 69 70 71 72 73 74 75 76 78 79 81 81 82 83 84 85 86 88 90 92 95 98 100 103 105 106 107 108 108 108 110 112 114 115 116 118 120 122 122 123 123 123 124 123 123 122 120 117 115 113 109 106 105 106 105 104 104 100 98 97 95 93 91 88 87 88 87 83 81 80 80 78 76 76 75 73 71 68 66 65
57 58 60 61 63 64 66 66 67 68 69 70 71 72 73 74 76 77 78 79 80 81 81 83 84 86 88 91 94 96 100 102 103 103 104 106 106 106 107 109 111 113 114 116 118 120 121 122 122 123 124 124 124 122 121 119 118 114 111 109 108 108 107 107 106 102 99 98 97 95 93 90 88 90 89 86 83 83 82 81 78 77 77 75 73 71 69 67
53 55 56 58 59 60 61 63 64 65 66 67 68 69 71 72 72 73 74 75 76 77 79 80 82 84 86 89 92 95 99 100 99 100 102 103 104 104 104 106 108 110 112 113 116 118 120 121 122 122 123 124 124 123 122 122 120 116 113 111 110 110 109 109 108 104 100 99 98 97 95 92 91 91 91 88 86 85 84 82 80 78 78 77 76 74 71 69
49 50 52 53 54 55 57 58 60 61 62 63 65 66 67 67 68 68 70 71 72 74 76 78 80 82 84 87 89 93 96 95 94 96 99 100 100 101 101 103 105 108 110 111 113 116 118 120 121 122 122 123 124 124 123 123 121 118 115 113 112 111 110 111 109 106 103 100 98 98 97 94 92 92 92 91 89 87 84 83 82 80 80 80 79 76 73 71
44 45 46 47 49 51 52 54 55 57 58 59 60 61 62 62 63 64 66 68 70 72 74 76 78 79 81 83 86 90 91 89 90 93 95 97 97 97 97 99 102 105 108 109 110 113 116 118 120 122 122 123 123 124 124 124 122 119 117 115 114 113 111 111 110 108 104 102 99 98 99 97 94 93 93 93 91 88 85 83 84 83 84 83 81 79 76 74
39 40 41 43 45 46 48 50 51 52 53 55 55 56 57 58 59 61 63 66 68 70 72 73 74 76 79 81 85 88 85 83 86 88 91 93 94 93 93 94 97 102 105 107 108 110 113 116 118 120 121 122 123 124 124 123 122 120 119 117 116 114 113 112 111 109 106 103 101 99 100 99 96 95 94 94 93 90 87 86 87 87 87 87 84 82 80 78
35 36 38 39 41 42 44 45 47 48 49 50 51 52 53 55 57 59 62 63 65 67 68 69 70 73 76 79 83 83 77 78 83 84 87 90 90 90 89 90 92 97 102 105 106 108 111 113 115 118 120 121 122 123 124 123 122 121 121 119 117 116 115 113 111 109 106 104 102 100 101 100 98 97 95 95 94 93 91 89 90 90 90 90 87 84 82 80
33 34 35 37 38 40 41 42 43 44 45 46 48 49 52 54 56 59 61 62 63 64 64 65 67 70 73 76 79 75 71 75 79 82 84 85 87 86 84 85 87 92 98 103 105 105 108 111 113 115 118 120 121 122 123 122 122 122 122 121 119 117 116 114 112 110 107 105 102 101 101 101 100 99 97 96 96 95 94 93 93 92 92 92 89 86 85 83
32 33 34 36 37 38 38 39 40 41 42 44 46 49 51 54 56 58 59 60 60 59 59 60 63 66 69 72 70 67 66 71 76 79 81 81 84 83 81 80 82 87 93 99 103 104 106 109 111 113 116 118 119 121 121 121 122 122 123 123 122 120 117 115 112 109 108 106 103 101 101 101 101 100 99 97 97 97 96 96 96 94 94 94 90 87 87 86
35 35 36 36 37 37 37 37 38 39 41 43 46 48 50 51 53 54 54 54 53 51 51 53 58 60 62 63 59 57 60 65 70 74 77 78 81 81 78 77 78 83 89 96 101 102 104 107 109 111 114 116 118 119 120 121 121 122 124 124 124 121 118 115 113 110 108 107 105 102 101 101 103 103 101 100 100 99 99 98 98 97 95 95 92 89 89 88
40 39 39 38 38 37 36 36 37 39 41 43 45 46 47 48 49 49 49 48 46 44 44 47 50 52 54 52 49 49 53 58 63 68 72 75 77 78 76 74 76 80 86 92 97 100 102 104 107 110 112 114 117 119 119 120 121 122 124 124 124 121 118 116 114 111 108 106 104 102 101 101 104 105 104 103 103 102 102 101 100 99 98 97 95 93 91 90
47 44 43 42 40 38 36 36 37 40 42 43 44 44 44 45 45 46 46 44 41 39 39 41 42 44 45 43 42 44 48 52 57 62 66 70 73 75 74 73 74 78 83 88 93 97 100 102 104 108 110 113 116 117 118 119 121 122 122 122 122 121 119 117 115 113 109 106 104 102 101 101 104 106 105 105 106 105 104 104 102 101 100 99 98 95 94 93
55 51 48 46 44 41 39 38 40 42 43 43 42 42 42 42 42 42 42 41 36 34 35 36 37 39 40 38 39 41 44 48 53 57 60 64 68 70 71 71 72 76 80 85 90 94 97 100 102 105 108 111 113 116 117 119 120 120 120 119 120 120 119 118 115 113 110 106 103 103 103 103 104 106 107 107 108 107 105 105 103 102 101 100 99 98 95 95
63 59 55 52 49 46 43 42 42 44 44 43 42 41 40 39 38 38 38 36 30 29 32 34 34 36 36 35 35 37 40 44 48 53 55 58 62 65 67 68 71 74 78 83 87 92 95 98 100 103 106 109 111 113 114 114 114 115 115 115 116 117 118 118 116 114 111 107 104 104 106 106 105 106 108 109 109 107 106 105 104 102 102 101 101 100 98 97
70 66 62 58 55 52 48 46 46 45 44 42 41 40 38 37 36 35 34 31 26 25 28 31 32 31 31 30 31 32 35 39 44 47 49 52 56 59 62 65 68 72 76 80 85 90 93 96 98 99 102 104 106 107 107 108 109 109 110 112 114 115 116 117 116 115 113 110 107 106 108 108 106 106 107 108 108 108 107 105 105 104 103 103 102 101 100 99
78 72 68 65 61 57 53 50 49 48 45 43 41 39 37 35 33 31 30 27 25 23 23 26 28 27 26 25 26 27 30 35 39 41 43 46 50 54 58 61 66 70 74 78 83 88 91 93 94 94 95 98 100 102 104 106 108 109 111 113 115 116 116 116 116 115 115 113 111 110 109 108 107 107 106 106 106 107 108 108 106 105 104 104 104 103 102 101
85 80 75 71 67 63 58 55 53 51 48 46 44 41 38 35 33 31 28 26 24 22 20 21 22 22 22 22 22 24 26 30 33 36 39 42 46 50 54 58 63 68 73 77 82 86 88 89 88 88 91 96 100 103 106 107 108 110 112 114 116 116 116 116 116 116 116 116 115 112 109 108 109 109 107 106 105 106 108 108 108 107 106 106 106 106 105 104
90 88 82 77 72 68 64 60 57 54 51 49 46 42 40 37 35 31 28 26 23 21 19 18 17 18 18 18 19 20 22 26 29 32 35 38 42 46 50 55 61 67 72 76 80 83 84 84 86 88 92 96 100 104 106 107 109 110 111 113 114 115 116 117 118 118 118 119 117 113 111 109 109 110 110 108 108 107 107 107 108 108 108 108 107 107 107 107
92 92 89 83 78 73 70 65 62 58 54 51 48 44 42 40 36 31 27 24 21 19 17 15 14 13 14 14 15 17 20 22 25 29 32 35 38 43 46 51 57 64 70 74 78 80 80 82 87 90 92 95 98 101 104 106 107 109 110 111 113 114 116 117 119 119 119 120 118 113 113 112 109 108 109 110 110 109 108 107 108 110 110 109 108 108 108 108
93 93 93 90 84 78 74 71 66 62 58 54 51 48 45 41 35 30 26 23 20 18 16 13 11 9 9 10 11 13 16 19 22 25 29 32 35 39 43 48 54 61 67 72 76 77 79 84 88 89 89 92 95 98 101 103 105 106 107 110 112 113 114 115 117 118 118 119 117 114 114 114 111 108 108 110 111 111 110 108 108 109 109 109 109 108 108 109
94 94 95 94 90 84 78 75 71 66 62 57 54 51 48 42 35 30 27 25 24 21 19 16 12 9 7 6 7 9 12 16 19 22 26 29 32 36 40 45 51 58 64 70 74 76 80 85 87 86 86 88 92 95 97 99 101 103 104 107 109 111 113 114 116 117 117 117 116 115 115 115 114 110 107 108 110 111 111 109 108 107 107 108 108 108 108 109
95 95 95 96 94 90 84 79 74 70 65 61 57 54 49 43 38 33 31 32 29 25 22 18 14 10 8 5 4 5 8 11 15 19 22 26 29 33 38 43 49 54 61 67 72 76 80 83 84 84 84 85 88 91 94 96 98 100 102 104 107 110 112 113 114 115 116 115 114 114 115 114 114 112 109 107 108 109 109 108 108 107 107 107 107 108 109 109
97 97 97 97 97 95 90 83 78 74 70 65 61 57 51 46 41 38 38 38 32 26 22 18 15 12 9 7 5 2 3 7 10 14 18 22 26 30 35 41 46 51 58 64 70 74 78 80 81 82 82 83 85 87 90 93 95 98 100 103 106 108 110 111 112 113 113 113 113 113 114 113 113 114 112 108 105 105 106 106 107 107 107 107 107 107 108 110
98 98 98 98 98 97 95 89 83 79 74 70 65 60 54 49 44 43 44 39 32 27 22 19 16 13 11 9 8 5 2 2 5 9 14 18 22 27 32 37 43 49 56 62 68 72 75 77 79 79 79 79 80 83 86 89 92 96 99 102 104 106 108 109 110 112 112 112 113 113 113 114 114 115 115 112 107 103 102 102 103 105 107 108 108 108 108 109
99 99 99 99 99 99 97 94 88 83 79 75 70 63 56 51 48 48 46 39 33 29 25 21 19 16 13 12 11 9 7 5 4 6 10 14 18 23 28 33 39 46 53 60 66 70 73 75 77 77 76 77 79 82 85 87 91 94 98 100 102 105 107 108 110 111 111 112 113 114 113 113 115 115 115 115 111 107 103 100 100 102 105 108 110 110 110 110
100 100 100 100 100 99 99 97 94 88 82 78 73 66 60 57 58 55 48 40 35 32 30 26 22 18 16 16 15 13 11 9 7 6 7 11 15 20 24 30 35 42 49 55 61 66 70 73 74 75 76 78 80 81 83 86 89 92 95 97 100 102 105 107 108 109 111 112 113 113 112 112 113 114 114 114 114 111 108 105 103 104 106 109 111 111 111 111
100 100 101 101 101 100 100 99 97 93 86 80 76 71 67 67 65 57 48 43 38 36 35 31 25 22 21 20 20 17 16 14 11 9 9 10 13 17 22 27 32 37 44 51 57 63 67 70 72 73 75 77 79 80 81 84 86 89 93 95 98 102 105 107 109 110 112 113 112 111 111 112 112 112 113 113 114 113 111 110 110 111 112 111 111 110 110 111
99 100 100 101 101 101 100 100 99 96 90 84 79 77 76 74 67 58 52 47 43 41 40 36 31 27 25 24 23 21 20 19 16 13 12 12 12 16 20 25 30 34 39 46 54 60 64 68 71 73 75 75 75 76 78 81 84 87 91 94 97 102 107 109 111 112 113 113 111 111 111 112 112 112 113 113 114 115 114 113 113 113 113 111 110 109 110 111
99 99 100 100 100 101 101 101 100 98 93 88 83 83 83 77 68 61 57 52 47 44 43 40 36 31 28 28 28 26 26 24 20 17 17 15 14 16 19 22 27 33 38 42 48 55 60 65 69 71 72 72 71 72 74 77 80 83 87 92 97 102 106 108 110 111 112 111 110 110 111 111 111 111 111 112 114 114 114 114 114 113 111 110 109 109 109 109
98 98 99 99 100 101 101 101 100 98 95 91 89 89 87 80 72 67 62 56 51 48 45 43 39 36 33 32 31 31 30 28 25 22 20 19 17 17 19 22 25 30 36 40 44 50 55 60 64 67 68 68 69 70 72 75 77 81 85 89 94 100 103 105 107 108 109 109 109 110 111 111 111 111 111 112 113 114 114 114 114 114 113 111 110 109 109 110
97 97 97 98 99 100 101 100 100 99 96 94 95 94 88 82 77 72 66 61 56 53 49 45 42 41 38 35 34 33 32 30 28 27 24 22 21 20 20 22 25 29 33 37 40 43 48 53 56 60 63 65 67 69 72 74 77 81 84 88 92 96 100 102 105 106 107 107 108 109 110 111 111 112 112 112 112 113 114 114 115 114 114 113 112 111 111 112
95 96 96 97 98 99 99 99 100 99 96 96 99 96 89 84 81 77 72 66 61 57 53 48 45 44 42 38 36 34 32 31 31 32 29 26 23 22 22 23 25 29 32 36 39 41 44 48 52 56 60 63 65 67 69 72 75 79 83 86 90 94 97 100 103 106 107 107 108 109 109 110 111 111 111 111 111 112 113 114 114 115 115 114 114 114 113 113
92 94 95 96 96 97 97 98 99 98 97 100 101 96 91 88 84 81 77 72 66 61 58 53 49 46 44 41 38 34 31 31 33 34 32 29 25 22 23 23 24 28 32 36 38 41 44 46 49 52 55 58 61 64 66 69 73 77 80 84 88 92 96 99 101 103 104 105 107 107 107 108 108 109 110 110 110 111 112 113 114 114 115 115 116 117 116 115
90 91 93 93 94 95 95 97 97 97 99 102 100 95 93 91 87 84 82 78 72 67 62 57 52 49 46 44 41 37 34 31 32 34 34 31 27 24 23 22 23 26 30 34 36 38 42 44 46 49 51 53 57 61 64 68 71 74 78 82 86 89 92 95 98 99 101 102 103 104 104 104 105 107 108 109 109 110 111 112 113 113 114 115 117 118 118 118
87 88 90 91 92 93 94 95 95 96 99 101 97 95 95 93 90 87 84 82 78 72 66 61 56 53 49 46 42 40 38 34 32 32 33 32 29 28 26 22 21 23 26 31 34 35 37 40 42 45 49 52 55 59 63 66 69 72 76 79 81 83 86 89 92 95 97 99 100 100 101 101 103 105 106 108 108 109 110 111 112 113 113 114 116 117 118 119
85 86 87 88 89 90 91 92 93 95 98 97 95 96 95 93 92 89 86 84 81 77 72 66 61 56 52 48 44 41 40 38 37 33 30 29 29 30 30 26 22 21 21 24 29 33 35 37 39 40 44 49 52 56 60 64 67 70 72 74 76 78 81 84 87 90 93 95 97 97 98 99 102 104 105 107 108 109 110 111 111 112 112 113 114 115 117 118
82 83 84 85 86 88 89 89 91 93 94 94 94 95 94 93 92 90 87 85 83 81 77 72 66 60 56 52 48 44 42 41 40 36 32 29 27 28 30 29 27 25 22 20 21 25 27 31 35 37 38 41 45 48 52 56 60 65 68 71 73 75 77 80 84 87 89 92 94 95 96 99 102 103 104 106 108 109 110 110 111 112 112 113 113 114 115 117
80 81 82 82 83 85 87 87 88 90 91 91 92 92 92 92 91 90 88 86 83 82 80 77 73 67 60 55 51 48 45 42 40 38 35 33 30 27 26 27 27 26 26 24 22 21 20 20 24 31 34 36 39 42 45 47 51 56 61 64 68 70 73 76 79 82 85 88 90 92 94 97 100 102 104 105 107 109 110 110 110 111 112 113 114 114 116 117
79 79 79 80 81 82 83 85 86 86 87 88 89 89 89 89 88 88 88 87 85 82 80 79 77 73 67 60 55 51 47 44 42 39 37 35 33 30 28 26 24 22 22 23 23 23 23 21 19 22 26 29 32 36 39 42 46 50 54 58 61 64 67 70 73 76 80 83 85 88 91 94 97 100 102 103 105 107 108 108 108 109 110 111 113 114 116 117
76 77 77 78 78 79 80 81 83 84 84 85 86 86 86 86 86 86 86 85 85 83 81 79 77 75 72 68 62 56 51 47 44 42 39 37 35 32 30 29 26 23 20 18 17 17 18 21 21 22 24 25 27 30 33 36 40 44 48 52 56 59 61 64 67 69 73 76 79 83 87 90 94 97 98 100 102 104 106 106 107 107 108 109 111 113 114 116
73 75 75 76 76 76 77 79 80 80 81 82 82 83 83 83 83 83 83 83 82 82 81 80 77 75 74 72 70 65 60 54 49 45 42 39 37 34 32 30 27 25 23 20 18 15 13 14 15 17 20 22 25 27 30 33 36 40 43 47 51 54 56 59 61 64 67 70 73 76 81 85 89 92 94 96 99 101 103 104 105 106 107 108 109 111 113 114
70 72 73 74 74 74 75 76 76 77 78 79 80 80 81 81 81 81 80 80 79 79 80 79 78 76 74 72 71 70 67 63 57 52 47 43 39 37 34 31 29 27 24 22 20 18 15 14 12 11 12 14 17 20 24 27 31 35 39 43 47 50 53 56 58 61 63 65 68 71 75 79 83 86 89 92 95 97 99 101 103 104 105 107 108 110 111 113
65 68 70 71 72 73 73 72 73 73 74 76 77 78 78 78 79 78 77 76 76 76 76 76 75 75 74 72 71 69 68 67 64 60 56 51 46 42 38 34 32 29 27 24 22 20 17 15 13 12 11 10 11 13 15 19 22 26 31 35 40 44 48 52 55 58 60 63 65 68 71 75 79 82 85 88 91 93 96 98 100 102 104 106 107 109 110 112
63 64 66 68 70 71 71 70 70 71 71 72 73 75 75 75 75 75 75 74 72 71 70 71 71 71 72 71 70 69 67 66 65 64 62 59 55 50 46 41 37 33 30 28 25 23 20 18 15 13 11 10 9 9 10 12 15 18 21 25 29 34 38 42 47 51 54 57 61 64 67 70 73 77 80 83 86 88 91 94 96 99 101 103 104 106 108 110
61 62 62 64 66 68 69 69 69 68 68 69 70 71 72 72 72 72 71 71 70 68 66 66 66 67 68 68 67 67 66 65 64 63 62 60 59 57 53 50 46 42 38 34 30 27 24 21 18 15 13 11 10 8 8 8 9 11 14 17 20 24 28 32 36 40 44 48 52 55 59 62 65 69 72 75 79 82 85 88 91 93 95 98 100 102 104 106
60 61 60 60 62 64 65 67 67 67 66 66 67 67 68 69 70 70 68 67 67 67 65 64 63 63 63 64 63 62 63 63 62 61 61 60 58 57 55 54 52 49 46 42 38 34 31 27 23 20 17 15 12 10 8 7 6 7 9 11 13 16 20 23 26 30 34 38 42 46 49 53 57 61 64 68 71 74 77 80 83 86 89 91 94 96 98 100
57 59 59 59 59 60 62 63 64 65 65 64 64 64 65 66 67 68 67 66 65 64 64 63 61 59 58 59 59 59 59 58 58 58 58 57 56 55 54 53 52 50 49 47 44 41 38 35 31 27 24 21 17 14 12 9 7 5 5 6 8 11 14 17 20 23 26 29 33 36 40 44 48 51 55 59 62 66 69 72 75 78 81 83 86 88 91 93
55 56 57 58 58 59 59 59 60 62 63 63 63 62 62 63 63 64 65 65 64 63 61 61 60 58 56 55 55 55 56 55 54 54 53 53 53 52 52 51 50 49 48 46 45 43 41 39 36 34 31 28 25 22 19 15 12 8 6 3 3 5 7 10 13 16 20 23 26 29 32 35 39 42 46 49 53 56 59 62 65 68 71 74 77 80 82 85
Wind_Direction
269 270 270 271 271 271 270 269 268 267 266 265 264 263 262 260 259 258 257 257 256 255 253 252 250 249 248 247 246 246 245 244 243 241 240 240 240 239 238 236 236 235 235 234 234 233 232 232 232 231 230 229 229 230 230 230 230 230 230 230 229 230 230 231 231 233 233 234 234 232 232 233 235 236 235 235 237 237 238 239 240 241 241 240 239 238 238 239
272 273 273 273 273 272 271 270 269 267 266 266 265 264 263 262 261 260 259 258 257 256 255 253 252 250 248 247 246 246 245 245 244 242 240 239 239 239 238 236 235 235 234 234 234 233 232 232 231 231 230 229 229 229 229 229 230 230 230 230 229 228 229 230 230 231 233 233 233 231 230 232 234 235 235 234 235 236 237 238 239 240 241 240 239 238 237 238
276 275 275 274 273 273 272 271 270 269 268 268 267 266 265 264 263 262 261 260 259 257 256 254 253 251 250 248 247 246 245 244 244 243 242 240 238 238 237 237 235 234 234 233 233 233 232 231 231 231 230 229 228 229 229 229 229 229 229 229 228 227 228 229 230 231 232 233 232 231 230 231 233 235 235 234 234 235 236 237 238 239 240 240 239 238 237 237
278 277 277 276 276 276 275 274 273 273 272 271 270 269 267 266 265 264 262 261 259 258 256 255 253 251 250 248 247 246 245 244 243 243 242 241 239 237 237 237 236 234 233 233 232 232 232 231 230 230 230 229 228 228 229 229 228 228 228 228 227 227 227 229 230 230 232 233 232 231 230 230 232 234 234 233 233 234 235 235 236 238 239 239 239 239 238 238
280 280 280 280 279 279 278 277 277 276 275 274 273 271 270 268 266 265 263 261 260 258 257 255 253 252 250 248 247 246 245 244 243 243 243 242 240 238 237 236 236 234 233 232 232 232 231 231 230 229 229 229 228 228 228 228 228 227 227 226 226 227 227 228 229 229 231 232 232 231 230 229 231 233 234 233 233 233 234 235 235 237 239 240 240 240 239 238
283 283 283 282 281 281 280 280 279 278 277 275 274 272 271 269 267 266 264 263 261 260 258 256 254 252 250 248 247 246 245 244 244 243 243 242 241 239 237 236 236 235 233 231 231 231 231 230 229 228 228 228 228 227 227 227 227 226 226 225 225 226 227 228 229 229 229 231 231 231 230 229 229 232 234 234 233 233 234 236 236 237 239 240 241 241 240 239
286 286 285 284 283 282 281 280 279 278 276 275 274 272 270 269 268 267 266 265 263 261 259 257 255 253 251 249 248 246 246 245 244 244 243 243 241 240 238 236 235 234 233 231 230 230 230 229 229 228 227 227 227 227 226 226 226 225 225 225 225 226 226 228 228 228 228 230 231 231 230 229 229 231 233 233 233 233 234 236 237 237 239 240 241 241 241 240
289 288 287 286 285 283 282 280 279 278 276 275 274 273 271 271 270 269 267 266 264 263 260 258 256 254 253 251 249 248 247 247 246 244 244 243 242 240 238 236 235 234 233 232 230 229 229 228 228 228 227 226 227 226 226 225 225 225 224 224 225 225 226 227 228 228 228 229 230 231 231 230 229 230 232 233 233 234 234 236 237 237 238 239 240 241 241 241
292 291 290 288 286 285 283 282 281 280 279 278 277 276 275 273 272 270 268 266 265 263 261 259 258 256 255 253 252 250 249 248 247 245 245 244 243 241 238 236 234 234 233 232 230 228 228 227 227 227 226 226 226 225 225 225 224 224 224 224 224 225 225 226 227 227 227 228 230 231 231 230 229 230 231 233 233 234 234 234 235 236 237 238 238 240 240 240
296 295 293 292 290 289 288 286 285 284 283 282 281 280 278 277 275 272 270 268 266 264 263 262 260 259 257 255 253 252 251 250 248 247 245 245 244 242 239 236 233 232 232 231 230 228 227 226 226 226 226 225 224 225 224 224 224 223 223 223 224 224 225 225 226 227 227 228 229 231 232 231 230 230 231 233 233 233 233 233 234 235 236 237 237 238 238 239
304 302 300 299 297 295 293 291 290 289 288 287 286 284 282 280 278 276 273 271 269 267 266 264 263 260 258 256 254 253 252 250 249 247 245 245 244 242 239 235 232 231 231 231 229 227 226 226 225 225 225 225 224 224 224 223 223 222 222 223 223 224 224 225 225 226 227 228 228 230 232 231 230 230 231 233 233 233 233 232 233 235 236 237 237 237 238 239
316 313 310 307 304 302 299 297 296 295 293 292 290 289 287 285 282 280 278 276 274 272 270 268 265 261 259 256 255 255 253 250 249 247 245 243 243 241 238 234 231 229 229 229 229 227 226 225 224 224 224 224 223 223 223 223 222 222 222 222 223 223 223 224 225 225 226 227 228 229 231 232 231 231 230 232 234 234 233 232 233 234 236 238 238 238 239 240
331 326 322 318 314 311 308 305 303 301 299 297 296 293 291 289 286 284 282 280 278 276 273 269 265 262 260 258 257 256 253 249 247 246 244 242 241 240 237 233 229 227 226 227 227 226 224 224 224 223 223 223 223 222 222 222 221 221 221 222 222 222 222 223 224 224 225 225 227 228 230 232 232 231 231 231 233 234 234 233 233 233 235 237 238 238 239 240
345 340 335 331 326 321 317 314 311 308 306 303 301 298 295 292 290 288 286 284 281 278 273 268 265 264 262 261 260 257 252 248 245 244 242 240 240 239 236 232 228 225 224 224 225 225 224 223 222 222 222 222 222 222 221 220 220 220 220 221 221 222 222 222 223 223 224 225 226 227 229 231 232 231 230 231 232 233 234 234 234 234 234 236 237 238 239 240
358 353 348 343 338 332 327 322 318 315 312 310 306 304 301 298 296 294 291 289 287 282 275 269 266 265 264 263 260 254 249 246 243 242 240 238 237 236 234 230 226 223 222 222 223 224 223 222 221 221 221 221 221 221 220 219 219 220 220 220 221 221 221 222 222 222 222 223 225 227 228 230 232 232 231 231 231 232 233 233 234 234 234 235 236 236 238 239
8 3 358 354 349 343 336 331 326 323 320 317 314 311 308 305 301 299 296 294 292 286 277 271 269 267 265 262 257 252 247 243 241 240 238 236 235 234 231 227 224 221 220 220 221 222 222 221 220 220 219 220 220 220 219 218 218 219 219 220 220 221 221 221 222 222 222 222 223 226 227 229 231 233 232 232 232 232 233 234 234 235 235 236 236 235 236 238
15 10 6 1 357 352 345 340 335 331 328 324 321 318 314 310 307 304 302 300 296 287 279 274 270 268 266 262 255 250 246 242 240 239 237 235 233 232 230 226 222 219 218 217 218 219 220 220 220 219 218 219 219 219 219 218 217 218 218 219 220 220 221 221 222 222 222 221 222 224 226 227 229 232 233 232 232 233 233 234 235 236 236 237 237 237 236 237
19 15 11 7 3 359 353 348 343 339 335 332 329 325 321 318 314 311 307 304 297 288 283 278 273 271 267 261 255 250 246 242 240 238 236 234 232 230 228 224 220 218 216 215 216 217 218 219 219 218 217 218 218 218 219 218 218 218 218 219 220 220 221 221 221 222 222 221 220 222 224 226 227 231 233 233 233 233 234 234 235 236 237 238 238 238 237 236
21 19 16 12 8 4 360 354 350 346 342 339 336 333 329 326 322 317 313 308 301 293 287 283 279 274 268 262 256 249 244 241 239 237 235 233 231 228 225 222 219 217 215 213 213 215 216 217 218 217 217 217 218 218 218 219 218 217 217 218 220 220 221 221 222 222 222 221 219 220 223 225 226 229 232 234 235 234 234 234 235 236 237 238 238 238 238 237
23 21 19 16 12 9 5 360 355 352 349 346 344 341 337 333 328 324 320 316 310 302 293 286 282 278 270 263 256 249 242 239 238 236 234 231 229 227 223 219 217 215 213 211 211 213 214 216 217 216 216 217 217 218 218 218 217 215 215 216 218 219 219 220 222 222 222 221 219 219 222 224 225 227 230 233 235 235 234 234 235 235 236 237 238 239 239 238
24 22 21 18 16 12 9 5 1 358 355 353 351 348 345 342 338 335 330 324 318 312 304 293 285 279 272 263 255 248 242 238 236 234 232 229 226 225 221 217 214 212 211 209 209 211 212 214 215 215 214 214 215 216 216 216 216 215 214 215 216 217 218 219 220 221 221 222 220 219 221 223 225 226 228 230 233 235 235 235 235 235 236 237 238 239 239 239
25 24 22 20 18 16 12 9 6 4 1 359 357 354 353 350 346 343 338 332 327 322 316 306 295 285 275 265 255 248 241 236 234 232 229 226 224 222 219 215 212 210 209 207 207 209 210 210 212 213 212 212 213 214 214 214 214 214 213 214 215 216 217 218 218 219 220 221 221 219 220 223 225 226 227 229 231 233 235 236 235 235 236 237 238 239 240 240
25 24 23 22 20 18 16 13 10 8 6 4 2 1 0 357 352 348 345 341 339 334 326 318 306 293 281 270 258 249 241 234 230 228 226 223 221 220 217 213 210 208 207 206 206 206 207 207 210 211 211 211 212 213 213 213 213 213 212 212 214 216 217 218 218 219 220 221 221 220 219 221 224 226 227 229 230 232 235 236 237 237 237 237 238 240 241 241
26 25 24 23 22 20 19 16 14 11 9 8 6 7 5 1 356 354 355 355 353 348 342 334 323 307 291 275 261 251 243 235 230 225 223 220 218 216 214 212 209 207 205 204 204 203 203 205 208 210 210 209 211 212 213 213 213 213 212 212 213 215 217 218 219 220 221 222 221 221 220 220 222 225 227 229 230 231 233 235 238 239 239 239 240 241 242 243
27 26 25 24 23 22 21 19 17 14 13 11 11 11 8 3 2 3 8 10 7 1 357 352 348 339 322 294 271 255 245 237 230 224 220 217 214 212 210 208 207 205 204 203 202 201 202 204 206 208 209 209 210 211 212 212 212 213 212 212 213 214 216 218 219 220 221 222 222 222 222 221 222 224 227 229 231 232 233 235 237 239 241 241 241 241 242 244
26 26 26 25 24 23 23 22 20 18 16 15 15 14 10 8 9 12 18 19 13 6 4 3 3 360 358 349 315 274 250 238 229 223 218 214 211 209 207 205 204 203 202 202 201 200 201 203 205 206 207 207 209 210 211 211 212 212 212 213 213 214 216 217 219 220 221 222 222 223 224 223 223 224 227 229 231 232 234 235 236 238 240 241 242 241 242 243
25 25 26 25 25 24 24 23 22 21 20 19 19 17 14 13 14 18 24 22 14 9 9 11 15 17 21 27 22 355 259 237 227 221 215 210 207 205 204 202 201 200 200 200 200 200 200 202 204 205 206 206 207 209 210 211 211 211 212 212 213 214 216 217 218 220 221 222 222 222 224 224 224 224 226 229 231 232 234 235 236 237 239 241 241 242 242 242
24 25 25 25 25 25 24 24 24 23 22 22 21 19 18 18 19 25 28 22 15 15 17 19 26 30 37 46 52 58 78 186 210 213 210 206 203 202 201 200 198 197 197 198 198 199 199 200 202 204 205 205 206 208 209 210 210 210 211 212 213 213 215 217 218 220 220 221 222 222 223 224 224 224 225 227 229 231 233 235 236 237 238 240 240 241 241 242
23 24 24 25 25 25 25 25 25 25 24 24 23 22 22 23 25 30 30 23 20 23 25 28 33 37 46 55 61 67 76 94 139 182 194 196 196 196 196 196 196 195 195 196 197 197 197 198 201 202 203 204 205 206 207 208 209 210 211 212 212 213 215 216 218 219 220 221 222 222 223 224 225 225 225 227 228 229 231 232 234 236 237 238 239 240 241 242
22 23 23 24 25 26 26 25 25 25 25 26 25 24 25 27 30 31 29 25 25 29 32 33 36 42 51 58 62 64 70 78 94 126 161 177 184 187 189 191 193 193 193 194 195 195 196 197 199 201 202 203 204 205 206 207 208 209 210 211 212 214 215 216 218 219 220 221 222 223 223 224 225 226 226 227 229 230 231 231 232 234 236 237 239 240 241 243
22 22 22 23 24 25 26 26 26 26 26 26 27 26 28 31 31 29 28 27 29 34 36 36 39 46 52 58 61 63 68 73 79 98 125 149 166 175 180 184 186 189 191 191 192 194 195 195 197 199 202 203 204 204 205 206 207 208 209 210 212 213 215 216 217 218 219 220 222 223 224 224 225 226 227 228 229 230 231 232 233 234 235 237 239 241 242 243
21 21 21 22 23 24 25 26 27 27 26 27 28 29 30 32 30 29 29 29 31 36 38 38 40 46 52 58 61 64 68 71 76 89 106 122 143 160 169 175 178 181 185 189 190 192 193 193 195 198 201 203 204 204 204 205 206 207 208 209 210 213 215 215 216 217 219 220 221 222 224 225 226 226 227 228 229 230 231 233 235 237 238 239 241 242 243 244
21 21 21 21 22 23 24 25 26 27 26 27 29 31 32 32 30 29 30 31 33 37 40 41 42 46 53 58 62 65 67 69 74 85 97 107 124 142 154 164 170 173 176 183 188 190 191 193 195 197 200 201 203 204 205 206 206 207 208 209 210 213 215 216 217 218 219 220 220 222 223 225 226 227 227 228 230 231 232 234 236 237 239 240 241 242 243 244
21 21 21 20 21 22 23 24 25 26 26 27 30 33 33 32 31 31 31 32 34 37 40 42 44 46 52 58 63 66 67 68 72 80 89 99 110 126 140 151 161 167 171 176 183 188 190 194 196 197 199 200 201 203 204 205 206 207 208 209 210 213 215 217 218 219 220 221 221 222 223 225 226 227 228 229 230 231 232 234 235 237 238 239 240 242 243 243
20 21 20 20 20 21 22 22 24 25 26 28 31 33 33 32 32 33 32 33 35 38 40 42 46 48 50 56 62 65 68 70 75 79 83 93 104 115 128 141 152 159 165 170 176 183 188 192 195 197 198 200 201 203 203 204 205 206 207 209 210 213 215 217 218 219 220 222 222 223 224 225 226 227 228 229 230 231 233 234 236 237 239 240 241 242 243 244
20 21 20 20 20 20 20 21 22 23 24 28 32 32 32 33 34 34 34 34 36 38 40 42 45 48 50 53 59 65 70 75 79 80 81 86 96 109 121 133 145 154 160 164 168 175 183 189 193 196 198 200 201 203 204 205 206 207 208 208 210 212 215 216 218 219 220 221 222 223 224 225 227 228 229 230 231 232 234 235 236 238 239 241 242 242 243 244
20 21 21 20 19 19 19 19 21 21 22 27 31 31 31 33 34 35 35 35 36 38 40 41 43 47 50 52 55 60 68 76 80 80 81 82 88 102 115 126 139 149 157 161 165 172 178 185 191 194 197 201 202 202 204 205 207 208 209 209 210 212 214 216 218 220 221 221 222 223 225 226 228 229 231 232 233 234 235 236 237 239 240 241 242 243 244 245
19 21 22 21 20 19 18 19 20 19 21 25 28 28 30 32 34 35 36 36 37 38 40 41 42 45 49 52 54 56 60 69 78 82 82 82 86 94 104 117 133 145 153 159 163 170 176 182 188 192 195 199 202 203 204 206 207 209 210 211 212 213 215 217 218 220 222 223 224 224 225 227 228 230 232 233 234 235 236 237 238 239 241 242 243 245 246 247
17 20 22 21 21 19 19 19 18 18 21 24 25 25 28 30 32 35 37 37 38 38 40 41 42 44 47 50 53 56 58 62 69 78 84 86 89 92 94 104 121 135 149 158 162 168 175 180 186 192 195 197 201 204 205 207 208 210 212 213 214 215 216 218 220 221 223 224 225 225 226 228 229 231 232 233 234 236 237 239 240 241 242 243 245 246 247 248
15 18 20 21 21 20 19 19 18 18 21 23 22 23 25 28 30 33 35 38 39 39 40 41 42 43 45 48 51 55 59 61 62 67 77 87 92 95 95 97 105 119 135 153 161 166 173 179 183 190 197 200 202 205 207 208 209 211 213 214 215 216 217 218 220 222 224 225 226 227 227 228 230 231 233 234 235 236 237 239 240 242 243 244 246 247 248 249
14 16 18 20 21 21 21 20 18 19 20 21 21 22 23 25 27 30 33 36 38 40 41 41 42 43 44 46 48 52 56 60 63 64 67 74 83 93 99 101 103 108 115 129 148 159 169 178 182 185 193 200 203 207 211 212 213 214 215 215 216 217 217 219 220 222 224 225 227 228 228 229 230 231 233 235 236 237 237 238 240 242 243 244 246 247 249 250
12 14 16 18 20 21 22 21 20 20 20 21 21 21 22 23 24 26 29 32 36 39 41 42 42 43 44 45 46 48 52 56 61 65 67 69 72 79 90 99 106 112 118 122 129 140 152 167 181 187 191 196 201 205 209 213 215 218 219 219 220 220 220 220 221 222 224 226 227 228 229 230 231 232 233 235 237 238 239 239 240 242 243 245 246 248 249 251
12 13 14 16 18 20 21 22 22 21 21 21 21 21 21 22 23 24 26 28 32 35 39 42 43 44 45 46 48 49 51 53 56 60 65 68 71 74 78 84 92 103 116 126 132 140 148 153 167 181 188 193 198 202 206 209 212 216 219 221 223 223 224 224 224 224 225 227 228 229 230 231 232 234 234 235 237 239 241 241 242 242 244 246 247 249 250 251
12 12 13 14 16 18 20 22 23 22 21 22 22 22 22 22 22 23 24 26 28 30 34 38 42 44 45 46 48 50 51 53 55 57 60 63 67 70 75 79 82 88 95 107 119 133 149 156 164 175 181 188 194 199 204 208 210 213 217 220 222 224 225 227 227 227 228 228 229 230 231 233 234 235 236 237 238 240 242 244 244 244 245 246 248 250 251 253
11 11 12 13 14 15 17 20 22 22 22 22 22 23 23 23 23 23 24 24 26 27 30 33 36 40 43 45 47 48 50 52 54 57 59 61 63 65 69 74 79 84 88 92 99 108 124 140 157 173 181 187 194 199 203 207 210 213 216 218 221 223 225 227 228 229 230 230 230 231 233 234 236 237 238 239 240 241 243 245 246 247 248 248 249 251 252 254
10 11 11 12 12 14 16 18 20 21 22 22 22 22 23 24 24 24 24 24 25 26 27 29 31 34 38 41 44 46 48 49 51 54 57 60 63 64 66 69 72 77 82 86 92 98 106 115 129 146 163 179 190 197 203 207 210 213 216 218 221 222 224 226 227 229 230 231 232 232 233 235 237 238 239 240 241 242 244 246 247 249 250 251 251 252 253 255
8 10 10 11 11 12 14 15 17 19 21 21 22 22 22 23 24 25 25 25 25 26 27 28 29 31 33 35 39 42 45 47 49 50 53 55 59 62 64 67 70 73 76 79 84 89 94 100 109 120 134 153 170 184 195 204 210 214 217 220 222 224 225 227 228 229 231 232 232 233 234 235 237 238 240 241 242 244 245 246 248 249 250 251 252 253 254 255
6 7 8 10 11 12 12 13 14 16 18 20 21 22 22 22 23 24 26 26 26 27 28 29 29 30 31 32 34 36 39 42 45 47 49 51 53 56 59 62 65 68 72 75 79 83 87 91 96 104 114 126 141 159 176 191 202 210 215 219 223 225 227 229 230 232 233 234 235 236 237 237 239 240 241 243 244 245 246 247 248 250 251 252 253 255 256 257
4 4 5 7 9 10 11 12 12 14 16 17 19 21 22 22 22 22 24 25 27 27 27 28 30 31 33 33 33 34 35 37 39 42 44 47 49 50 52 55 57 60 63 67 71 75 79 83 87 93 100 107 117 131 148 170 188 200 209 215 220 224 226 229 231 233 235 237 238 239 240 241 242 243 244 245 246 247 248 249 250 251 252 254 255 256 257 258
2 2 2 4 5 7 9 11 11 12 13 14 16 18 20 21 22 22 22 23 25 26 27 28 29 32 33 35 35 35 35 36 37 38 39 41 44 46 48 50 52 53 55 57 59 62 66 70 74 79 84 89 96 105 117 137 161 184 201 212 219 224 227 229 232 233 235 237 239 240 241 243 244 245 246 247 249 250 251 251 252 253 254 256 257 258 259 260
1 360 0 2 2 3 5 7 9 10 11 13 13 15 17 18 20 21 22 22 22 24 26 28 29 31 33 34 36 37 38 38 37 38 38 39 40 41 43 44 46 48 50 52 53 54 56 59 61 63 68 71 76 81 87 96 112 140 171 196 213 223 229 233 235 237 239 240 241 241 242 243 244 245 247 248 249 251 252 253 254 255 256 257 258 259 260 261
0 359 358 359 360 0 1 3 5 7 9 11 12 13 14 16 17 18 20 21 21 22 23 26 28 29 31 33 34 36 39 41 41 40 40 41 41 41 41 41 42 43 44 46 48 49 50 51 53 54 55 57 59 61 63 65 69 77 87 108 168 209 224 232 236 240 242 244 245 247 247 248 248 249 250 250 251 252 253 254 255 256 257 258 259 260 261 262
Height
10555 10553 10551 10549 10547 10545 10543 10540 10538 10536 10533 10530 10529 10526 10525 10523 10522 10521 10519 10519 10518 10518 10519 10520 10522 10523 10525 10526 10528 10531 10532 10534 10536 10540 10545 10550 10557 10562 10570 10579 10585 10591 10601 10609 10614 10622 10633 10640 10648 10657 10666 10675 10680 10684 10690 10700 10708 10716 10723 10734 10749 10758 10759 10759 10755 10755 10759 10766 10778 10787 10790 10792 10794 10797 10803 10809 10811 10815 10819 10823 10824 10825 10829 10834 10836 10838 10841 10843
10549 10546 10544 10541 10538 10536 10534 10530 10528 10525 10522 10520 10518 10516 10514 10512 10510 10509 10507 10507 10506 10506 10507 10507 10508 10509 10512 10513 10515 10518 10518 10519 10520 10523 10531 10537 10542 10547 10555 10563 10569 10577 10588 10596 10601 10610 10620 10627 10636 10645 10653 10663 10670 10674 10680 10689 10698 10708 10717 10728 10744 10751 10750 10747 10745 10747 10749 10757 10770 10778 10784 10787 10788 10789 10797 10804 10806 10809 10813 10817 10819 10820 10823 10827 10829 10832 10835 10838
10542 10539 10536 10533 10529 10527 10524 10521 10518 10515 10512 10510 10507 10505 10502 10500 10499 10497 10495 10494 10493 10493 10494 10494 10495 10495 10497 10499 10501 10504 10503 10503 10505 10508 10515 10521 10528 10534 10539 10545 10554 10564 10573 10581 10587 10595 10604 10614 10625 10632 10640 10650 10659 10664 10670 10680 10690 10700 10709 10723 10736 10739 10738 10736 10737 10740 10741 10750 10762 10770 10778 10781 10781 10783 10791 10797 10800 10803 10806 10811 10814 10814 10817 10820 10822 10826 10830 10834
10534 10530 10527 10524 10521 10518 10514 10511 10508 10505 10502 10499 10496 10493 10491 10489 10486 10484 10482 10480 10480 10479 10479 10480 10480 10480 10482 10483 10485 10487 10487 10487 10489 10494 10499 10505 10513 10519 10524 10529 10539 10549 10558 10566 10573 10581 10589 10600 10611 10619 10627 10637 10647 10653 10660 10672 10682 10691 10703 10718 10725 10724 10727 10727 10728 10734 10737 10745 10756 10763 10770 10774 10776 10777 10782 10789 10793 10796 10798 10803 10806 10807 10809 10813 10816 10820 10825 10829
10525 10522 10519 10515 10512 10508 10504 10501 10498 10494 10491 10487 10484 10481 10479 10476 10473 10470 10468 10467 10466 10465 10465 10465 10465 10465 10466 10468 10469 10470 10471 10471 10473 10480 10484 10490 10498 10504 10511 10517 10525 10534 10543 10552 10559 10567 10575 10586 10597 10606 10614 10624 10634 10642 10652 10664 10672 10682 10696 10707 10710 10712 10718 10718 10719 10729 10734 10738 10747 10754 10760 10767 10772 10770 10773 10783 10787 10788 10790 10794 10799 10802 10803 10807 10812 10816 10820 10824
10518 10514 10510 10507 10503 10499 10495 10492 10488 10484 10480 10476 10473 10469 10466 10463 10460 10457 10455 10454 10452 10452 10451 10451 10451 10450 10451 10453 10453 10454 10454 10454 10460 10468 10471 10476 10483 10490 10498 10505 10511 10518 10527 10537 10545 10552 10562 10572 10583 10593 10602 10611 10620 10632 10644 10652 10659 10672 10685 10694 10698 10701 10707 10707 10712 10724 10729 10731 10738 10746 10752 10761 10766 10763 10766 10775 10780 10781 10783 10788 10794 10797 10799 10802 10806 10811 10815 10818
10510 10506 10502 10498 10495 10490 10486 10482 10478 10474 10470 10466 10462 10458 10454 10451 10449 10446 10444 10441 10439 10439 10438 10437 10436 10436 10437 10437 10438 10439 10436 10439 10450 10456 10457 10461 10468 10475 10484 10491 10497 10504 10512 10521 10530 10538 10548 10558 10569 10579 10590 10598 10608 10621 10631 10637 10648 10663 10673 10683 10688 10691 10696 10700 10706 10719 10724 10726 10732 10738 10744 10752 10757 10757 10758 10765 10772 10775 10779 10785 10790 10794 10794 10796 10800 10804 10809 10813
10503 10499 10494 10490 10486 10482 10477 10473 10469 10464 10460 10456 10451 10447 10444 10441 10438 10435 10433 10430 10427 10426 10424 10423 10422 10422 10423 10423 10424 10423 10421 10429 10441 10442 10443 10448 10454 10461 10469 10477 10484 10490 10497 10507 10516 10524 10534 10545 10555 10564 10576 10586 10596 10608 10617 10626 10639 10653 10664 10673 10677 10681 10688 10692 10699 10711 10717 10720 10725 10729 10736 10743 10749 10752 10752 10757 10764 10768 10776 10784 10786 10787 10787 10789 10792 10797 10804 10809
10496 10492 10487 10483 10478 10474 10469 10464 10460 10456 10451 10447 10442 10438 10435 10431 10428 10425 10422 10418 10416 10413 10411 10410 10409 10411 10410 10409 10409 10406 10409 10421 10427 10429 10431 10434 10439 10446 10455 10463 10471 10477 10484 10493 10503 10512 10520 10531 10541 10549 10562 10573 10584 10594 10605 10616 10629 10644 10654 10661 10667 10673 10679 10684 10692 10702 10710 10715 10719 10722 10727 10735 10742 10744 10745 10749 10757 10762 10772 10779 10777 10778 10778 10780 10785 10790 10796 10801
10490 10485 10481 10476 10471 10467 10462 10457 10452 10448 10443 10438 10434 10430 10426 10422 10418 10414 10410 10407 10404 10401 10400 10398 10398 10398 10396 10395 10394 10391 10401 10411 10412 10416 10418 10419 10425 10432 10440 10449 10458 10464 10471 10479 10489 10498 10507 10517 10527 10537 10548 10560 10572 10582 10592 10605 10619 10633 10642 10648 10656 10663 10670 10676 10685 10695 10704 10709 10714 10717 10719 10727 10734 10737 10739 10742 10749 10754 10764 10769 10767 10769 10768 10770 10777 10782 10786 10791
10484 10480 10475 10470 10465 10460 10455 10450 10445 10440 10436 10431 10426 10421 10417 10412 10408 10403 10399 10396 10393 10390 10389 10387 10387 10385 10382 10381 10377 10378 10393 10399 10398 10401 10403 10406 10411 10418 10426 10435 10445 10452 10458 10466 10475 10485 10495 10504 10515 10526 10537 10548 10560 10570 10581 10595 10609 10621 10630 10638 10646 10654 10661 10669 10678 10688 10698 10704 10708 10711 10711 10718 10726 10730 10733 10736 10741 10746 10754 10760 10761 10761 10760 10763 10770 10775 10779 10783
10480 10475 10470 10465 10460 10454 10449 10444 10439 10434 10429 10424 10419 10414 10409 10403 10398 10393 10388 10385 10382 10379 10377 10376 10373 10370 10368 10366 10363 10370 10384 10385 10383 10385 10388 10393 10398 10403 10412 10421 10431 10439 10446 10453 10461 10472 10483 10493 10504 10515 10525 10535 10547 10558 10570 10585 10598 10610 10619 10627 10635 10644 10652 10660 10670 10681 10690 10697 10702 10704 10704 10711 10718 10722 10727 10730 10732 10737 10744 10750 10753 10755 10753 10755 10764 10770 10773 10777
10476 10471 10465 10460 10454 10449 10444 10439 10434 10428 10423 10418 10412 10406 10400 10394 10388 10382 10378 10374 10370 10368 10366 10363 10359 10357 10355 10352 10354 10364 10370 10370 10369 10370 10374 10381 10385 10390 10399 10409 10419 10426 10433 10440 10447 10459 10470 10480 10491 10503 10513 10524 10535 10546 10560 10574 10586 10598 10607 10615 10623 10632 10642 10652 10664 10674 10683 10690 10694 10697 10698 10704 10709 10714 10720 10723 10723 10727 10734 10740 10744 10749 10748 10748 10757 10764 10766 10769
10472 10467 10461 10455 10450 10444 10439 10434 10428 10423 10417 10411 10405 10398 10392 10385 10378 10373 10368 10363 10360 10357 10354 10351 10348 10346 10343 10342 10348 10355 10355 10354 10355 10357 10362 10368 10372 10378 10387 10397 10406 10414 10421 10428 10436 10448 10458 10468 10479 10490 10502 10513 10523 10534 10549 10563 10574 10585 10594 10602 10610 10622 10637 10647 10657 10666 10674 10682 10688 10691 10692 10695 10699 10704 10710 10713 10713 10717 10723 10729 10734 10740 10743 10744 10751 10758 10759 10762
10469 10464 10458 10452 10446 10440 10435 10429 10423 10417 10411 10405 10397 10390 10383 10376 10370 10364 10358 10354 10350 10347 10344 10341 10339 10337 10334 10335 10340 10342 10341 10342 10343 10345 10349 10354 10359 10366 10374 10384 10393 10401 10409 10416 10425 10436 10447 10457 10469 10479 10491 10502 10510 10520 10536 10551 10562 10571 10581 10591 10602 10618 10632 10639 10647 10657 10666 10675 10683 10686 10687 10689 10690 10692 10699 10702 10704 10707 10712 10718 10724 10730 10735 10738 10742 10749 10753 10755
10467 10461 10455 10449 10442 10436 10430 10425 10419 10412 10405 10398 10390 10383 10375 10368 10362 10356 10350 10346 10342 10338 10335 10333 10331 10329 10327 10328 10331 10331 10330 10331 10332 10334 10338 10343 10348 10354 10363 10372 10381 10389 10398 10406 10416 10426 10436 10448 10458 10468 10479 10489 10497 10510 10526 10538 10547 10558 10571 10586 10600 10613 10623 10630 10640 10650 10658 10668 10676 10680 10681 10682 10679 10681 10690 10694 10694 10698 10704 10709 10715 10721 10726 10730 10734 10741 10747 10749
10465 10458 10452 10446 10439 10433 10426 10420 10414 10406 10399 10391 10384 10376 10369 10362 10355 10348 10343 10338 10334 10331 10328 10326 10324 10322 10321 10321 10322 10321 10322 10323 10324 10325 10328 10333 10338 10344 10352 10362 10371 10379 10387 10396 10407 10416 10426 10437 10446 10457 10468 10478 10489 10501 10512 10523 10536 10552 10568 10583 10595 10606 10616 10625 10635 10644 10653 10662 10668 10672 10672 10671 10670 10672 10678 10682 10684 10691 10698 10703 10709 10715 10719 10723 10727 10733 10740 10743
10463 10456 10450 10443 10436 10429 10423 10416 10409 10402 10394 10386 10378 10370 10363 10356 10349 10342 10336 10332 10329 10326 10322 10320 10318 10316 10315 10314 10314 10314 10314 10315 10316 10317 10320 10325 10329 10335 10343 10352 10361 10369 10378 10388 10398 10406 10415 10425 10436 10448 10458 10469 10479 10489 10503 10521 10540 10556 10571 10583 10592 10601 10611 10618 10627 10637 10646 10654 10662 10663 10660 10659 10663 10665 10665 10668 10677 10686 10692 10697 10703 10708 10712 10715 10720 10724 10731 10735
10462 10455 10448 10441 10434 10426 10419 10412 10405 10397 10389 10382 10374 10366 10358 10350 10344 10338 10332 10327 10324 10321 10318 10314 10312 10310 10309 10308 10308 10308 10308 10308 10309 10311 10315 10319 10323 10329 10335 10344 10353 10361 10370 10380 10389 10396 10406 10416 10426 10439 10452 10466 10478 10492 10511 10527 10541 10557 10570 10581 10587 10596 10605 10612 10620 10629 10635 10643 10649 10647 10645 10651 10659 10660 10657 10661 10670 10678 10685 10690 10695 10700 10704 10707 10711 10715 10721 10726
10461 10454 10447 10439 10431 10424 10417 10409 10401 10393 10385 10378 10370 10363 10355 10347 10341 10335 10328 10323 10319 10316 10314 10310 10307 10305 10304 10304 10303 10303 10302 10303 10304 10306 10310 10313 10317 10322 10328 10336 10344 10353 10362 10372 10380 10388 10398 10409 10422 10439 10455 10469 10481 10494 10507 10516 10529 10544 10555 10562 10569 10579 10591 10599 10609 10618 10624 10628 10631 10633 10637 10646 10652 10652 10653 10656 10661 10667 10674 10681 10685 10691 10696 10699 10702 10706 10711 10716
10460 10453 10445 10438 10430 10422 10415 10407 10399 10390 10381 10373 10365 10358 10351 10343 10337 10330 10325 10320 10316 10312 10310 10306 10303 10301 10300 10299 10299 10298 10298 10299 10300 10302 10304 10308 10312 10316 10322 10329 10336 10344 10353 10362 10372 10381 10392 10407 10424 10440 10451 10460 10469 10478 10488 10499 10514 10527 10537 10547 10556 10567 10577 10586 10595 10603 10609 10612 10618 10630 10637 10640 10643 10643 10647 10651 10653 10656 10663 10671 10679 10683 10687 10690 10692 10696 10700 10705
10461 10453 10445 10437 10429 10421 10413 10405 10397 10388 10379 10371 10363 10355 10347 10340 10333 10327 10322 10317 10313 10309 10306 10303 10300 10298 10297 10296 10295 10295 10295 10295 10296 10298 10300 10303 10307 10311 10317 10323 10330 10338 10345 10355 10367 10377 10390 10407 10421 10429 10436 10444 10452 10462 10474 10488 10501 10513 10528 10541 10550 10559 10566 10573 10579 10585 10592 10597 10609 10625 10632 10633 10635 10636 10641 10646 10648 10650 10654 10662 10669 10674 10678 10681 10684 10687 10691 10695
10462 10453 10446 10437 10429 10420 10411 10403 10394 10386 10377 10370 10362 10354 10346 10338 10332 10326 10320 10315 10311 10307 10304 10301 10298 10295 10294 10293 10292 10292 10292 10292 10293 10294 10296 10299 10303 10307 10313 10320 10326 10334 10342 10352 10363 10375 10390 10402 10407 10413 10423 10434 10445 10456 10468 10480 10493 10506 10520 10532 10541 10550 10557 10563 10569 10575 10583 10588 10601 10617 10621 10624 10628 10630 10635 10640 10643 10646 10649 10653 10658 10664 10669 10674 10678 10681 10683 10687
10463 10456 10448 10439 10430 10421 10412 10402 10393 10385 10377 10369 10360 10352 10345 10338 10332 10326 10320 10315 10311 10306 10303 10299 10296 10294 10292 10291 10290 10290 10290 10290 10291 10292 10294 10296 10300 10304 10310 10316 10323 10331 10339 10348 10359 10372 10385 10390 10395 10406 10419 10431 10441 10451 10462 10475 10488 10502 10515 10525 10535 10543 10550 10557 10564 10573 10580 10583 10597 10609 10610 10614 10620 10623 10627 10631 10636 10640 10644 10648 10652 10657 10663 10669 10673 10676 10678 10680
10465 10458 10450 10442 10432 10423 10414 10404 10395 10386 10377 10369 10360 10352 10345 10339 10333 10326 10320 10315 10310 10306 10302 10299 10295 10293 10291 10290 10289 10289 10289 10289 10289 10291 10292 10294 10297 10301 10307 10313 10320 10328 10336 10345 10356 10368 10374 10379 10391 10405 10417 10428 10438 10447 10460 10474 10487 10499 10511 10521 10530 10537 10543 10549 10557 10566 10572 10578 10593 10600 10599 10606 10614 10619 10621 10624 10629 10634 10639 10645 10648 10651 10655 10660 10665 10669 10672 10674
10467 10460 10452 10444 10435 10425 10416 10406 10398 10389 10379 10371 10361 10353 10346 10340 10333 10327 10320 10314 10310 10306 10303 10299 10296 10293 10291 10290 10289 10288 10288 10288 10289 10290 10291 10294 10297 10300 10305 10310 10317 10325 10334 10344 10353 10361 10368 10377 10390 10402 10413 10425 10435 10445 10457 10470 10483 10495 10507 10516 10525 10531 10535 10543 10553 10560 10565 10575 10588 10592 10593 10603 10613 10616 10618 10620 10624 10629 10634 10639 10643 10646 10648 10650 10655 10660 10664 10666
10468 10461 10454 10446 10437 10428 10418 10409 10400 10391 10381 10373 10363 10355 10348 10341 10334 10328 10319 10314 10312 10308 10304 10300 10297 10294 10292 10290 10289 10288 10288 10288 10289 10290 10291 10293 10296 10300 10304 10308 10315 10323 10332 10341 10350 10358 10367 10378 10389 10399 10410 10421 10433 10445 10456 10467 10480 10492 10503 10510 10518 10526 10531 10540 10548 10553 10561 10572 10580 10582 10587 10596 10604 10608 10611 10614 10618 10623 10628 10632 10636 10640 10641 10642 10645 10650 10654 10657
10471 10464 10456 10448 10440 10431 10422 10412 10402 10393 10384 10375 10366 10359 10351 10344 10338 10329 10320 10318 10316 10311 10306 10303 10299 10296 10293 10291 10290 10289 10289 10289 10289 10291 10292 10294 10297 10300 10304 10309 10314 10321 10329 10337 10345 10355 10367 10378 10389 10399 10411 10423 10434 10444 10453 10465 10477 10487 10495 10501 10511 10520 10526 10535 10542 10548 10556 10563 10566 10572 10578 10584 10590 10596 10601 10605 10610 10616 10621 10625 10629 10631 10632 10633 10635 10639 10642 10646
10473 10467 10459 10452 10443 10434 10426 10416 10406 10396 10387 10378 10371 10364 10357 10351 10341 10330 10324 10324 10321 10315 10310 10305 10301 10298 10296 10293 10292 10290 10290 10290 10291 10292 10293 10296 10298 10302 10306 10310 10315 10321 10327 10334 10342 10353 10365 10377 10386 10397 10410 10422 10430 10438 10447 10459 10470 10479 10488 10496 10506 10514 10520 10528 10534 10541 10548 10551 10555 10563 10570 10575 10579 10587 10594 10598 10602 10607 10612 10616 10619 10620 10621 10622 10624 10627 10631 10635
10476 10469 10463 10455 10447 10439 10430 10420 10410 10400 10391 10384 10377 10370 10363 10352 10338 10330 10330 10330 10325 10319 10313 10308 10305 10302 10299 10297 10294 10293 10293 10292 10293 10294 10295 10298 10300 10303 10307 10311 10317 10322 10329 10337 10346 10356 10365 10375 10386 10397 10407 10414 10421 10431 10442 10452 10462 10473 10484 10494 10503 10510 10516 10523 10528 10534 10539 10540 10546 10555 10562 10567 10572 10581 10589 10593 10597 10601 10604 10607 10608 10608 10608 10609 10614 10619 10623 10627
10479 10472 10465 10458 10450 10443 10434 10425 10415 10406 10399 10391 10382 10376 10364 10348 10339 10339 10339 10335 10329 10323 10316 10312 10309 10306 10303 10301 10299 10297 10296 10296 10296 10297 10298 10301 10303 10306 10310 10314 10319 10325 10332 10339 10348 10356 10365 10375 10385 10395 10402 10409 10418 10429 10439 10449 10459 10470 10480 10489 10497 10503 10507 10512 10517 10522 10524 10529 10539 10549 10556 10561 10566 10574 10581 10585 10589 10593 10596 10598 10597 10597 10599 10602 10609 10614 10618 10620
10482 10475 10468 10461 10455 10448 10440 10431 10422 10413 10407 10397 10388 10378 10362 10349 10349 10351 10346 10339 10333 10326 10321 10317 10314 10310 10308 10305 10303 10302 10301 10300 10301 10301 10302 10304 10307 10310 10313 10317 10322 10328 10335 10343 10349 10356 10365 10375 10383 10391 10399 10408 10420 10430 10438 10447 10456 10465 10474 10482 10489 10492 10494 10499 10504 10508 10513 10523 10535 10543 10548 10554 10560 10567 10572 10577 10581 10584 10588 10590 10590 10591 10595 10599 10604 10607 10609 10611
10486 10479 10472 10466 10461 10453 10444 10436 10428 10422 10415 10406 10395 10379 10363 10359 10362 10358 10350 10345 10339 10332 10327 10323 10319 10316 10313 10310 10308 10307 10306 10306 10306 10306 10307 10308 10311 10314 10318 10322 10326 10331 10337 10345 10353 10360 10367 10375 10382 10390 10399 10409 10421 10431 10439 10447 10455 10463 10471 10478 10483 10484 10487 10493 10499 10504 10511 10522 10531 10537 10541 10546 10553 10560 10565 10570 10574 10577 10581 10583 10583 10585 10589 10592 10595 10597 10600 10602
10491 10483 10476 10471 10465 10456 10448 10442 10437 10430 10423 10415 10399 10380 10371 10373 10371 10363 10357 10352 10345 10339 10334 10330 10326 10323 10318 10316 10314 10313 10312 10312 10312 10312 10313 10314 10317 10320 10323 10327 10332 10336 10341 10348 10356 10364 10371 10379 10386 10394 10402 10412 10421 10428 10436 10444 10452 10460 10466 10472 10477 10479 10483 10491 10498 10505 10513 10521 10528 10533 10536 10541 10546 10551 10557 10561 10564 10568 10572 10574 10575 10577 10580 10583 10586 10588 10590 10592
10495 10487 10481 10476 10468 10460 10453 10449 10443 10435 10432 10423 10401 10386 10386 10385 10378 10370 10365 10359 10352 10346 10342 10338 10334 10329 10325 10322 10320 10319 10319 10318 10318 10318 10319 10321 10323 10325 10329 10332 10336 10342 10347 10353 10360 10369 10377 10385 10392 10399 10406 10413 10419 10425 10432 10438 10444 10451 10456 10463 10470 10474 10479 10485 10492 10499 10509 10518 10524 10527 10530 10535 10539 10542 10548 10553 10557 10561 10564 10566 10568 10570 10573 10576 10578 10580 10581 10582
10500 10492 10486 10479 10472 10465 10460 10455 10447 10441 10441 10427 10405 10400 10401 10394 10385 10379 10373 10366 10360 10354 10350 10345 10340 10336 10333 10330 10328 10327 10326 10325 10324 10324 10326 10328 10330 10332 10335 10338 10342 10346 10352 10357 10364 10372 10380 10387 10393 10400 10406 10411 10417 10425 10431 10437 10442 10446 10450 10457 10465 10470 10474 10479 10484 10490 10499 10507 10513 10518 10524 10529 10533 10537 10543 10548 10552 10556 10559 10561 10563 10565 10567 10570 10571 10573 10574 10575
10507 10498 10491 10484 10478 10471 10467 10460 10451 10449 10446 10426 10412 10415 10412 10401 10394 10387 10380 10374 10368 10362 10357 10352 10348 10344 10341 10338 10336 10335 10334 10332 10330 10330 10333 10335 10337 10339 10341 10344 10348 10352 10356 10361 10367 10373 10380 10387 10394 10400 10407 10413 10419 10425 10430 10435 10439 10444 10450 10457 10461 10464 10469 10474 10480 10487 10495 10501 10507 10514 10521 10525 10530 10535 10539 10544 10547 10550 10552 10555 10557 10559 10561 10563 10564 10565 10567 10568
10513 10505 10497 10491 10484 10478 10473 10465 10458 10457 10446 10427 10423 10427 10420 10410 10404 10395 10388 10382 10376 10370 10365 10361 10357 10353 10349 10346 10344 10343 10341 10340 10338 10338 10339 10341 10344 10346 10348 10351 10355 10358 10362 10366 10371 10377 10382 10389 10396 10402 10407 10413 10419 10423 10427 10431 10435 10441 10447 10452 10457 10463 10469 10474 10480 10486 10493 10499 10506 10514 10519 10524 10529 10531 10534 10538 10542 10544 10546 10549 10551 10553 10555 10555 10557 10558 10560 10561
10519 10512 10505 10498 10492 10486 10479 10471 10467 10462 10447 10434 10436 10434 10426 10420 10413 10405 10398 10391 10385 10380 10374 10370 10366 10362 10358 10355 10353 10351 10349 10348 10346 10345 10346 10348 10351 10352 10355 10359 10361 10364 10368 10371 10375 10381 10386 10392 10398 10403 10407 10411 10416 10420 10424 10429 10434 10440 10445 10450 10458 10466 10471 10476 10482 10487 10492 10497 10504 10512 10519 10524 10526 10527 10529 10532 10535 10538 10541 10543 10545 10547 10549 10550 10551 10552 10553 10555
10526 10519 10512 10506 10500 10493 10485 10479 10474 10465 10451 10446 10446 10439 10432 10427 10421 10416 10409 10401 10396 10390 10384 10380 10376 10371 10368 10364 10362 10360 10358 10356 10355 10354 10355 10355 10356 10358 10360 10365 10368 10371 10375 10378 10380 10384 10388 10393 10399 10405 10409 10413 10417 10421 10424 10428 10433 10439 10444 10451 10458 10465 10471 10476 10480 10485 10490 10494 10500 10507 10515 10519 10519 10520 10523 10525 10528 10531 10534 10536 10539 10541 10543 10544 10545 10546 10547 10548
10533 10526 10520 10514 10508 10501 10493 10487 10480 10469 10460 10457 10452 10444 10439 10434 10429 10425 10419 10413 10407 10400 10395 10390 10385 10381 10377 10373 10371 10369 10366 10364 10363 10363 10364 10364 10364 10365 10366 10369 10373 10376 10380 10384 10387 10389 10393 10396 10400 10405 10410 10415 10420 10424 10428 10433 10437 10441 10445 10450 10456 10462 10468 10474 10477 10482 10487 10490 10495 10502 10508 10510 10510 10512 10516 10518 10520 10523 10526 10530 10532 10534 10537 10538 10539 10541 10541 10541
10539 10532 10526 10520 10514 10508 10501 10494 10487 10478 10471 10465 10457 10452 10446 10440 10436 10432 10428 10423 10417 10411 10405 10400 10395 10392 10387 10383 10380 10377 10374 10373 10372 10371 10372 10372 10372 10373 10373 10374 10377 10380 10382 10385 10389 10393 10396 10400 10404 10407 10411 10416 10421 10425 10430 10437 10441 10444 10448 10453 10457 10461 10466 10470 10475 10481 10484 10487 10492 10498 10502 10504 10504 10506 10509 10512 10513 10515 10519 10524 10527 10529 10531 10532 10534 10535 10535 10535
10544 10537 10532 10527 10521 10515 10509 10503 10495 10488 10482 10474 10467 10461 10454 10449 10444 10439 10434 10430 10425 10421 10416 10411 10406 10403 10399 10395 10391 10387 10384 10382 10381 10380 10379 10379 10380 10380 10381 10382 10383 10385 10387 10388 10391 10394 10397 10401 10406 10410 10413 10417 10421 10425 10430 10435 10439 10444 10448 10453 10457 10461 10465 10469 10474 10479 10482 10486 10491 10494 10497 10498 10498 10499 10503 10507 10509 10510 10513 10517 10522 10525 10527 10527 10528 10528 10529 10528
10550 10544 10538 10533 10527 10523 10517 10509 10503 10497 10491 10485 10479 10472 10465 10459 10453 10446 10441 10436 10432 10429 10425 10421 10417 10413 10409 10406 10403 10399 10396 10392 10390 10389 10387 10386 10387 10387 10387 10388 10390 10392 10394 10395 10397 10399 10401 10404 10407 10410 10413 10417 10421 10424 10429 10433 10438 10442 10446 10450 10455 10459 10463 10467 10472 10476 10480 10484 10488 10491 10493 10493 10493 10495 10500 10504 10506 10507 10508 10511 10515 10518 10521 10522 10522 10522 10522 10522
10555 10549 10544 10538 10533 10529 10522 10515 10510 10505 10500 10495 10489 10483 10476 10469 10462 10455 10449 10444 10440 10436 10433 10429 10426 10422 10419 10415 10411 10408 10406 10403 10401 10398 10396 10395 10394 10394 10394 10395 10396 10397 10399 10400 10402 10404 10407 10409 10411 10413 10415 10418 10421 10424 10428 10432 10436 10440 10444 10448 10452 10456 10460 10464 10468 10472 10475 10479 10484 10487 10488 10489 10489 10492 10495 10498 10501 10503 10504 10506 10508 10511 10514 10515 10516 10516 10516 10516
10559 10554 10549 10544 10539 10534 10527 10522 10518 10513 10508 10503 10497 10491 10485 10479 10471 10465 10459 10453 10448 10443 10439 10436 10433 10430 10428 10424 10420 10417 10415 10412 10410 10408 10406 10405 10403 10402 10402 10402 10403 10403 10404 10406 10407 10408 10410 10412 10415 10417 10419 10422 10424 10427 10430 10433 10436 10439 10442 10446 10449 10453 10457 10460 10464 10467 10471 10475 10478 10481 10483 10484 10485 10488 10490 10493 10495 10498 10500 10502 10504 10505 10506 10507 10508 10508 10508 10508
10563 10558 10554 10549 10544 10538 10533 10529 10524 10519 10514 10509 10504 10498 10493 10487 10481 10475 10469 10464 10458 10452 10447 10444 10441 10438 10436 10433 10429 10426 10424 10421 10419 10417 10415 10413 10412 10411 10410 10410 10410 10410 10410 10411 10412 10413 10415 10416 10418 10420 10422 10424 10426 10429 10431 10434 10437 10440 10443 10446 10449 10452 10455 10458 10460 10463 10466 10470 10472 10475 10477 10479 10480 10482 10485 10488 10490 10493 10495 10497 10497 10497 10498 10498 10499 10499 10500 10499
10566 10562 10558 10553 10548 10543 10539 10535 10530 10525 10520 10515 10511 10506 10501 10496 10491 10486 10481 10475 10469 10464 10460 10456 10451 10447 10443 10440 10437 10434 10432 10430 10427 10425 10423 10421 10420 10419 10418 10418 10417 10417 10417 10417 10418 10419 10420 10421 10422 10423 10425 10426 10428 10430 10432 10434 10437 10440 10443 10445 10448 10451 10454 10457 10459 10462 10464 10467 10469 10471 10473 10475 10477 10479 10482 10484 10486 10488 10489 10490 10490 10490 10490 10491 10491 10492 10491 10491
10569 10565 10561 10557 10552 10548 10544 10539 10535 10530 10526 10522 10517 10512 10508 10504 10499 10494 10490 10485 10481 10476 10472 10467 10462 10456 10452 10448 10445 10443 10440 10437 10435 10433 10431 10429 10428 10426 10425 10424 10423 10424 10424 10424 10424 10425 10425 10426 10427 10428 10429 10429 10431 10432 10434 10435 10438 10440 10442 10444 10447 10449 10452 10455 10457 10460 10463 10465 10467 10469 10472 10474 10476 10477 10479 10480 10481 10482 10483 10483 10484 10485 10485 10486 10486 10485 10484 10484
10572 10568 10564 10560 10556 10552 10548 10544 10540 10536 10532 10527 10523 10518 10514 10510 10506 10501 10497 10494 10490 10486 10481 10476 10470 10466 10462 10458 10455 10452 10448 10445 10443 10441 10439 10437 10435 10433 10432 10431 10430 10430 10429 10429 10429 10430 10430 10431 10431 10432 10433 10433 10434 10435 10436 10438 10439 10441 10442 10444 10446 10448 10450 10453 10455 10457 10460 10462 10464 10466 10468 10470 10471 10473 10474 10475 10475 10476 10477 10478 10479 10479 10480 10480 10480 10479 10478 10477
10574 10571 10567 10563 10559 10556 10552 10548 10545 10540 10536 10532 10528 10524 10519 10515 10511 10508 10504 10500 10496 10492 10489 10484 10480 10476 10472 10468 10465 10462 10457 10454 10451 10448 10446 10444 10442 10441 10440 10438 10437 10436 10435 10435 10435 10435 10435 10435 10436 10436 10436 10437 10438 10438 10439 10440 10441 10442 10444 10445 10447 10448 10450 10452 10453 10455 10457 10459 10460 10462 10463 10465 10466 10467 10469 10470 10470 10471 10471 10471 10472 10472 10473 10472 10471 10471 10470 10468
10576 10573 10570 10566 10562 10558 10555 10551 10548 10544 10540 10536 10532 10528 10524 10520 10516 10513 10509 10506 10502 10498 10494 10491 10488 10485 10481 10477 10474 10470 10466 10463 10460 10457 10454 10452 10450 10448 10446 10444 10443 10442 10441 10441 10440 10440 10440 10440 10440 10440 10440 10440 10441 10441 10442 10442 10443 10444 10445 10446 10447 10449 10450 10452 10453 10454 10456 10457 10458 10459 10460 10461 10462 10463 10464 10465 10465 10465 10465 10465 10465 10465 10465 10464 10463 10462 10461 10459